CW3615 Weather Reports


time (UTC)temp
C
wind
direction
speed
KPH
gust
KPH
rain 1hr
cm
rain 24hr
cm
rain mn
cm
humidity
%
barometer
mb
20260506162226 15 161 6.4 14.5 0.00 0.00 0.00 15 1010.7
20260506161557 14 186 6.4 14.5 0.00 0.00 0.00 15 1010.7
20260506161506 14 185 6.4 14.5 0.00 0.00 0.00 15 1010.7
20260506161236 15 193 3.2 14.5 0.00 0.00 0.00 16 1010.7
20260506160226 15 212 1.6 17.7 0.00 0.00 0.00 18 1010.7
20260506160017 14 212 3.2 16.1 0.00 0.00 0.00 19 1010.7
20260506155236 15 155 4.8 16.1 0.00 0.00 0.00 21 1010.7
20260506154505 15 196 9.7 19.3 0.00 0.00 0.00 23 1010.9
20260506154225 15 173 4.8 11.3 0.00 0.00 0.00 21 1010.9
20260506153253 15 196 3.2 20.9 0.00 0.00 0.00 20 1011.0
20260506153047 15 186 3.2 20.9 0.00 0.00 0.00 20 1011.0
20260506152224 15 188 3.2 16.1 0.00 0.00 0.00 18 1011.1
20260506151535 15 212 6.4 17.7 0.00 0.00 0.00 20 1011.0
20260506151234 15 126 4.8 17.7 0.00 0.00 0.00 19 1011.0
20260506150225 15 178 6.4 19.3 0.00 0.00 0.00 18 1010.9
20260506150041 15 168 4.8 19.3 0.00 0.00 0.00 18 1010.9
20260506145236 15 192 8.0 17.7 0.00 0.00 0.00 20 1010.9
20260506144518 15 174 0.0 12.9 0.00 0.00 0.00 19 1010.9
20260506144224 15 184 0.0 12.9 0.00 0.00 0.00 20 1010.9
20260506143230 15 211 6.4 17.7 0.00 0.00 0.00 23 1011.1
20260506143031 15 167 1.6 12.9 0.00 0.00 0.00 24 1011.1
20260506142222 15 164 3.2 16.1 0.00 0.00 0.00 26 1011.3
20260506141522 15 176 6.4 14.5 0.00 0.00 0.00 27 1011.4
20260506141227 15 176 1.6 17.7 0.00 0.00 0.00 24 1011.3
20260506140240 15 190 1.6 22.5 0.00 0.00 0.00 19 1011.3
20260506140039 15 171 8.0 22.5 0.00 0.00 0.00 21 1011.4
20260506135234 15 142 4.8 20.9 0.00 0.00 0.00 17 1011.5
20260506134528 15 221 8.0 29.0 0.00 0.00 0.00 19 1011.7
20260506134225 15 202 6.4 19.3 0.00 0.00 0.00 19 1011.6
20260506133256 15 180 6.4 14.5 0.00 0.00 0.00 18 1011.6
20260506133006 15 165 0.0 9.7 0.00 0.00 0.00 16 1011.6
20260506132227 15 236 1.6 8.0 0.00 0.00 0.00 11 1011.6
20260506131551 14 192 1.6 17.7 0.00 0.00 0.00 10 1011.5
20260506131302 15 187 3.2 17.7 0.00 0.00 0.00 11 1011.6
20260506130231 14 188 6.4 17.7 0.00 0.00 0.00 10 1011.6
20260506130031 14 187 1.6 12.9 0.00 0.00 0.00 11 1011.5
20260506125241 15 152 6.4 12.9 0.00 0.00 0.00 14 1011.6
20260506124534 14 171 0.0 17.7 0.00 0.00 0.00 14 1011.4
20260506124232 15 171 8.0 17.7 0.00 0.00 0.00 15 1011.5
20260506123226 15 221 4.8 14.5 0.00 0.00 0.00 12 1011.7
20260506123052 15 229 1.6 12.9 0.00 0.00 0.00 11 1011.7
20260506122233 15 199 4.8 16.1 0.00 0.00 0.00 6 1011.8
20260506121558 14 173 8.0 17.7 0.00 0.00 0.00 8 1011.9
20260506121309 14 175 6.4 12.9 0.00 0.00 0.00 8 1011.9
20260506120228 14 225 4.8 12.9 0.00 0.00 0.00 4 1012.0
20260506120103 14 157 1.6 11.3 0.00 0.00 0.00 3 1011.9
20260506120002 14 134 1.6 9.7 0.00 0.00 0.00 3 1011.9
20260506115241 14 180 3.2 9.7 0.00 0.00 0.00 1 1011.8
20260506114512 13 174 4.8 19.3 0.00 0.00 0.00 1 1011.7
20260506114251 14 171 3.2 19.3 0.00 0.00 0.00 1 1011.7
20260506113238 13 145 1.6 16.1 0.00 0.00 0.00 1 1011.6
20260506113008 13 180 1.6 16.1 0.00 0.00 0.00 1 1011.5
20260506112244 13 193 1.6 12.9 0.00 0.00 0.00 1 1011.7
20260506111508 13 171 0.0 17.7 0.00 0.00 0.00 1 1011.7
20260506111226 13 211 1.6 17.7 0.00 0.00 0.00 1 1011.8
20260506110237 13 175 0.0 12.9 0.00 0.00 0.00 1 1011.7
20260506110035 13 178 1.6 12.9 0.00 0.00 0.00 1 1011.7
20260506105228 13 192 0.0 12.9 0.00 0.00 0.00 1 1011.7
20260506104519 12 175 0.0 14.5 0.00 0.00 0.00 1 1011.7
20260506104237 13 234 1.6 14.5 0.00 0.00 0.00 1 1011.7
20260506103228 13 144 3.2 16.1 0.00 0.00 0.00 1 1011.4
20260506103042 12 197 1.6 12.9 0.00 0.00 0.00 1 1011.4
20260506102237 13 220 1.6 12.9 0.00 0.00 0.00 1 1011.5
20260506101524 12 187 0.0 12.9 0.00 0.00 0.00 1 1011.6
20260506101228 13 183 1.6 12.9 0.00 0.00 0.00 1 1011.5
20260506100237 13 190 1.6 8.0 0.00 0.00 0.00 1 1011.6
20260506100032 12 211 1.6 8.0 0.00 0.00 0.00 1 1011.6
20260506095227 13 130 3.2 11.3 0.00 0.00 0.00 1 1011.6
20260506094522 12 190 3.2 11.3 0.00 0.00 0.00 1 1011.5
20260506094301 13 188 1.6 17.7 0.00 0.00 0.00 1 1011.6
20260506093224 13 196 1.6 11.3 0.00 0.00 0.00 1 1011.4
20260506093020 12 196 0.0 11.3 0.00 0.00 0.00 1 1011.4
20260506092235 13 243 3.2 12.9 0.00 0.00 0.00 1 1011.5
20260506091600 13 233 1.6 14.5 0.00 0.00 0.00 1 1011.5
20260506091245 13 180 4.8 14.5 0.00 0.00 0.00 1 1011.6
20260506090236 13 185 3.2 8.0 0.00 0.00 0.00 1 1011.7
20260506090058 13 205 0.0 11.3 0.00 0.00 0.00 1 1011.7
20260506085247 13 210 1.6 14.5 0.00 0.00 0.00 1 1011.7
20260506084519 13 204 0.0 9.7 0.00 0.00 0.00 1 1011.8
20260506084238 13 180 1.6 14.5 0.00 0.00 0.00 1 1011.8
20260506083231 13 222 1.6 8.0 0.00 0.00 0.00 1 1011.8
20260506083031 13 223 0.0 8.0 0.00 0.00 0.00 2 1011.8
20260506082223 13 203 0.0 14.5 0.00 0.00 0.00 4 1011.8
20260506081505 13 170 3.2 16.1 0.00 0.00 0.00 5 1011.8
20260506081252 13 220 3.2 9.7 0.00 0.00 0.00 6 1011.8
20260506080223 13 222 6.4 16.1 0.00 0.00 0.00 7 1012.0
20260506073242 13 178 3.2 14.5 0.00 0.00 0.00 10 1012.1
20260506073025 13 192 4.8 14.5 0.00 0.00 0.00 10 1012.1
20260506072225 13 160 3.2 14.5 0.00 0.00 0.00 12 1012.2
20260506071501 13 159 4.8 12.9 0.00 0.00 0.00 12 1012.3
20260506071228 13 182 3.2 11.3 0.00 0.00 0.00 13 1012.3
20260506070231 13 211 3.2 17.7 0.00 0.00 0.00 15 1012.2
20260506062226 14 199 1.6 14.5 0.00 0.00 0.00 21 1012.0
20260506061517 14 145 4.8 16.1 0.00 0.00 0.00 21 1011.9
20260506061237 14 179 6.4 17.7 0.00 0.00 0.00 21 1011.9
20260506060247 14 171 4.8 17.7 0.00 0.00 0.00 22 1011.9
20260506051239 15 186 1.6 16.1 0.00 0.00 0.00 27 1012.2
20260506050248 15 169 6.4 14.5 0.00 0.00 0.00 28 1012.3
20260506044540 14 219 3.2 19.3 0.00 0.00 0.00 29 1012.2
20260506044239 15 152 8.0 19.3 0.00 0.00 0.00 29 1012.3
20260506043240 15 185 6.4 17.7 0.00 0.00 0.00 31 1012.2
20260506043055 14 208 1.6 17.7 0.00 0.00 0.00 32 1012.2
20260506042232 15 182 4.8 17.7 0.00 0.00 0.00 33 1012.3
20260506041600 14 175 6.4 16.1 0.00 0.00 0.00 35 1012.2
20260506041225 15 208 3.2 17.7 0.00 0.00 0.00 36 1012.3
20260506040238 15 169 8.0 17.7 0.00 0.00 0.00 37 1012.3
20260506040023 15 184 9.7 17.7 0.00 0.00 0.00 37 1012.3
20260506035224 15 181 4.8 17.7 0.00 0.00 0.00 37 1012.2
20260506034518 15 205 4.8 19.3 0.00 0.00 0.00 37 1012.1
20260506034239 15 183 3.2 17.7 0.00 0.00 0.00 37 1012.2
20260506033233 15 181 8.0 14.5 0.00 0.00 0.00 35 1012.3
20260506033042 14 222 1.6 12.9 0.00 0.00 0.00 35 1012.2
20260506032246 15 167 3.2 14.5 0.00 0.00 0.00 35 1012.3
20260506031529 14 184 0.0 14.5 0.00 0.00 0.00 35 1012.2
20260506031240 15 142 1.6 25.7 0.00 0.00 0.00 35 1012.3
20260506030234 15 186 4.8 20.9 0.00 0.00 0.00 35 1012.4
20260506030059 14 168 0.0 20.9 0.00 0.00 0.00 36 1012.3
20260506025228 15 155 6.4 17.7 0.00 0.00 0.00 36 1012.5
20260506024553 15 192 3.2 11.3 0.00 0.00 0.00 36 1012.4
20260506024223 15 223 6.4 12.9 0.00 0.00 0.00 36 1012.3
20260506023232 15 194 4.8 12.9 0.00 0.00 0.00 36 1012.3
20260506023009 15 192 3.2 12.9 0.00 0.00 0.00 37 1012.3
20260506022224 15 211 1.6 17.7 0.00 0.00 0.00 38 1012.4
20260506021600 15 179 6.4 19.3 0.00 0.00 0.00 39 1012.4
20260506021502 15 155 6.4 19.3 0.00 0.00 0.00 39 1012.4
20260506021234 15 180 3.2 19.3 0.00 0.00 0.00 40 1012.4
20260506020223 15 203 6.4 14.5 0.00 0.00 0.00 42 1012.3
20260506020012 15 215 6.4 16.1 0.00 0.00 0.00 43 1012.3
20260506015232 15 175 1.6 9.7 0.00 0.00 0.00 46 1010.8
20260506014603 15 169 1.6 16.1 0.00 0.00 0.00 47 1007.7
20260506014223 15 178 3.2 27.4 0.00 0.00 0.00 48 1004.7
20260506013231 15 213 6.4 17.7 0.00 0.00 0.00 51 1010.4
20260506013100 15 163 3.2 17.7 0.00 0.00 0.00 52 1011.9
20260506012239 15 186 1.6 17.7 0.00 0.00 0.00 55 1011.9
20260506011540 15 147 8.0 19.3 0.00 0.00 0.00 57 1011.9
20260506011228 16 194 9.7 19.3 0.00 0.00 0.00 57 1011.9
20260506010239 16 194 6.4 17.7 0.00 0.00 0.00 56 1011.7
20260506010101 15 242 6.4 32.2 0.00 0.00 0.00 57 1011.5
20260506005230 16 160 6.4 32.2 0.00 0.00 0.00 57 1011.4
20260506004545 15 189 6.4 19.3 0.00 0.00 0.00 58 1011.5
20260506004235 16 171 9.7 22.5 0.00 0.00 0.00 58 1011.5
20260506003306 16 164 9.7 19.3 0.00 0.00 0.00 59 1011.3
20260506003043 16 211 8.0 22.5 0.00 0.00 0.00 59 1011.3
20260506002222 16 199 8.0 24.1 0.00 0.00 0.00 59 1011.3
20260506001545 15 193 4.8 19.3 0.00 0.00 0.00 58 1011.2
20260506001248 16 153 6.4 19.3 0.00 0.00 0.00 58 1011.2
20260506000226 16 189 6.4 16.1 0.00 0.00 0.00 57 1010.9
20260506000017 15 197 6.4 16.1 0.00 0.00 0.00 57 1011.0
20260505235249 15 202 6.4 20.9 0.00 0.00 0.00 56 1010.9
20260505234516 15 190 4.8 16.1 0.00 0.00 0.00 55 1010.7
20260505234227 15 171 8.0 20.9 0.00 0.00 0.00 55 1010.7
20260505233228 15 196 9.7 27.4 0.00 0.00 0.00 56 1010.4
20260505233045 15 186 8.0 27.4 0.00 0.00 0.00 56 1010.5
20260505232234 16 171 6.4 24.1 0.00 0.00 0.00 57 1010.4
20260505231550 15 200 8.0 20.9 0.00 0.00 0.00 58 1010.3
20260505231239 16 173 6.4 17.7 0.00 0.00 0.00 58 1010.3
20260505230245 16 185 9.7 19.3 0.00 0.00 0.00 58 1010.1
20260505230057 16 215 6.4 19.3 0.00 0.00 0.00 58 1010.3
20260505225228 16 165 9.7 20.9 0.00 0.00 0.00 59 1010.2
20260505224506 16 171 6.4 27.4 0.00 0.00 0.00 59 1010.2
20260505224231 16 220 9.7 27.4 0.00 0.00 0.00 59 1010.0
20260505223237 16 161 8.0 24.1 0.00 0.00 0.00 59 1010.0
20260505223036 16 209 6.4 24.1 0.00 0.00 0.00 59 1009.9
20260505222242 16 166 8.0 17.7 0.00 0.00 0.00 60 1010.0
20260505221534 16 181 4.8 14.5 0.00 0.00 0.00 61 1010.0
20260505221247 16 205 1.6 16.1 0.00 0.00 0.00 60 1009.9
20260505220224 16 180 4.8 24.1 0.00 0.00 0.00 61 1009.9
20260505220005 16 172 9.7 24.1 0.00 0.00 0.00 61 1009.9
20260505215229 16 183 3.2 25.7 0.00 0.00 0.00 61 1009.9
20260505214503 16 188 4.8 16.1 0.00 0.00 0.00 61 1009.9
20260505214301 16 194 8.0 16.1 0.00 0.00 0.00 62 1009.9
20260505213245 16 200 3.2 17.7 0.00 0.00 0.00 62 1009.6
20260505213017 16 186 1.6 17.7 0.00 0.00 0.00 62 1009.6
20260505212222 17 219 11.3 24.1 0.00 0.00 0.00 63 1009.6
20260505211523 16 211 8.0 33.8 0.00 0.00 0.00 63 1009.3
20260505211225 17 194 8.0 33.8 0.00 0.00 0.00 63 1009.5
20260505210232 17 182 9.7 20.9 0.00 0.00 0.00 63 1009.6
20260505210053 17 178 9.7 20.9 0.00 0.00 0.00 63 1009.3
20260505205242 17 155 4.8 25.7 0.00 0.00 0.00 63 1003.5
20260505204551 17 203 4.8 25.7 0.00 0.00 0.00 63 1009.4
20260505204259 17 167 6.4 20.9 0.00 0.00 0.00 63 1009.4
20260505203250 17 237 9.7 24.1 0.00 0.00 0.00 62
20260505203047 16 185 9.7 19.3 0.00 0.00 0.00 62 1009.6
20260505202221 17 179 6.4 16.1 0.00 0.00 0.00 63 1009.6
20260505201543 17 247 1.6 16.1 0.00 0.00 0.00 61 1009.7
20260505201301 17 129 1.6 16.1 0.00 0.00 0.00 61 1009.7
20260505200232 17 180 1.6 12.9 0.00 0.00 0.00 61 1009.8
20260505200045 16 184 0.0 14.5 0.00 0.00 0.00 59 1009.8
20260505195225 16 179 8.0 20.9 0.00 0.00 0.00 61 1010.1
20260505194533 16 232 4.8 16.1 0.00 0.00 0.00 61 1010.2
20260505194259 17 234 8.0 17.7 0.00 0.00 0.00 62 1010.2
20260505193230 17 144 0.0 14.5 0.00 0.00 0.00 61 1010.3
20260505193035 17 123 0.0 16.1 0.00 0.00 0.00 62 1010.3
20260505192223 17 189 4.8 16.1 0.00 0.00 0.00 61 1010.5
20260505191519 17 167 6.4 16.1 0.00 0.00 0.00 61 1010.6
20260505191236 17 164 3.2 16.1 0.00 0.00 0.00 61 1010.6
20260505190229 17 173 1.6 16.1 0.00 0.00 0.00 60 1010.9
20260505190038 17 138 1.6 11.3 0.00 0.00 0.00 62 1010.9
20260505185223 17 227 1.6 11.3 0.00 0.00 0.00 61 1011.0
20260505184526 17 126 0.0 14.5 0.00 0.00 0.00 61 1011.2
20260505184239 17 132 1.6 14.5 0.00 0.00 0.00 62 1011.3
20260505183233 17 51 0.0 8.0 0.00 0.00 0.00 60 1011.3
20260505183027 17 196 0.0 11.3 0.00 0.00 0.00 61 1011.3
20260505182246 17 194 3.2 12.9 0.00 0.00 0.00 61 1011.4
20260505181526 17 171 0.0 12.9 0.00 0.00 0.00 60 1011.5
20260505181230 17 138 0.0 12.9 0.00 0.00 0.00 59 1011.5
20260505180223 17 147 0.0 8.0 0.00 0.00 0.00 60 1011.6
20260505180054 17 131 0.0 8.0 0.00 0.00 0.00 60 1011.5
20260505175236 17 170 1.6 16.1 0.00 0.00 0.00 60 1011.6
20260505174554 17 225 0.0 17.7 0.00 0.00 0.00 60 1011.7
20260505174242 17 173 3.2 9.7 0.00 0.00 0.00 59 1011.7
20260505173227 17 179 1.6 9.7 0.00 0.00 0.00 58 1011.6
20260505173024 16 205 1.6 8.0 0.00 0.00 0.00 58 1011.7
20260505172301 17 135 0.0 11.3 0.00 0.00 0.00 59 1011.7
20260505171510 17 109 0.0 9.7 0.00 0.00 0.00 58 1011.9
20260505171223 17 171 1.6 9.7 0.00 0.00 0.00 59 1011.8
20260505170233 17 148 0.0 14.5 0.00 0.00 0.00 57 1011.8
20260505170038 16 148 0.0 14.5 0.00 0.00 0.00 58 1011.8
20260505165224 17 182 1.6 12.9 0.00 0.00 0.00 59 1012.0
20260505164514 17 235 0.0 8.0 0.00 0.00 0.00 59 1011.9
20260505164233 17 179 0.0 8.0 0.00 0.00 0.00 60 1011.9
20260505163221 17 190 0.0 9.7 0.00 0.00 0.00 60 1012.2
20260505163031 17 190 1.6 9.7 0.00 0.00 0.00 61 1012.3